CW7204 Weather Reports


Display with metric or nautical units.
time (UTC)temp
F
wind
direction
speed
MPH
gust
MPH
rain 1hr
in
rain 24hr
in
rain mn
in
humidity
%
barometer
mb
20260507083414 55 67 3.0 10.0 0.00 0.00 0.00 64 1015.9
20260507081413 55 112 4.0 14.0 0.00 0.00 0.00 64 1015.8
20260507080413 54 90 4.0 9.0 0.00 0.00 0.00 69 1015.8
20260507075413 54 90 4.0 9.0 0.00 0.00 0.00 68 1015.6
20260507074412 53 90 8.0 12.0 0.00 0.00 0.00 67 1015.5
20260507073412 53 67 2.0 11.0 0.00 0.00 0.00 71 1015.5
20260507072411 53 90 6.0 9.0 0.00 0.00 0.00 72 1015.6
20260507071411 52 90 6.0 9.0 0.00 0.00 0.00 73 1015.4
20260507070411 52 45 1.0 11.0 0.00 0.00 0.00 75 1015.4
20260507064415 51 90 6.0 10.0 0.00 0.00 0.00 77 1015.3
20260507063415 50 90 6.0 11.0 0.00 0.00 0.00 79 1015.3
20260507062414 49 90 7.0 13.0 0.00 0.00 0.00 82 1015.1
20260507060414 48 90 3.0 7.0 0.00 0.00 0.00 85 1014.9
20260507055414 47 90 6.0 9.0 0.00 0.00 0.00 86 1014.8
20260507054413 47 67 2.0 6.0 0.00 0.00 0.00 88 1014.8
20260507053413 45 45 1.0 6.0 0.00 0.00 0.00 90 1014.8
20260507052412 44 90 1.0 7.0 0.00 0.00 0.00 92 1014.7
20260507051412 43 45 1.0 2.0 0.00 0.00 0.00 93 1014.4
20260507050411 42 0 0.0 2.0 0.00 0.00 0.00 93 1014.4
20260507045412 42 0 0.0 0.0 0.00 0.00 0.00 94 1014.3
20260507043414 41 0 0.0 0.0 0.00 0.00 0.00 94 1014.3
20260507042410 41 0 0.0 0.0 0.00 0.00 0.00 94 1014.2
20260507040415 41 0 0.0 0.0 0.00 0.00 0.00 94 1013.9
20260507035414 41 0 0.0 0.0 0.00 0.00 0.00 93 1013.8
20260507034414 41 45 0.0 2.0 0.00 0.00 0.00 93 1013.7
20260507032413 42 0 0.0 0.0 0.00 0.00 0.00 92 1013.7
20260507031413 42 0 0.0 0.0 0.00 0.00 0.00 92 1013.6
20260507030413 42 0 0.0 0.0 0.00 0.00 0.00 91 1013.6
20260507025413 43 0 0.0 0.0 0.00 0.00 0.00 91 1013.4
20260507024412 43 0 0.0 0.0 0.00 0.00 0.00 90 1013.3
20260507023412 44 0 0.0 0.0 0.00 0.00 0.00 88 1013.3
20260507022411 45 45 0.0 4.0 0.00 0.00 0.00 87 1013.2
20260507020411 45 67 1.0 6.0 0.00 0.00 0.00 87 1013.2
20260507015412 45 67 0.0 2.0 0.00 0.00 0.00 87 1013.0
20260507014415 45 67 0.0 2.0 0.00 0.00 0.00 87 1012.8
20260507013415 46 67 1.0 4.0 0.00 0.00 0.00 85 1012.8
20260507011417 46 90 2.0 8.0 0.00 0.00 0.00 84 1012.7
20260507004413 46 67 1.0 6.0 0.00 0.00 0.00 84 1012.7
20260507003413 46 90 1.0 4.0 0.00 0.00 0.00 84 1012.7
20260507002412 47 67 1.0 6.0 0.00 0.00 0.00 83 1012.6
20260507001412 47 90 4.0 10.0 0.00 0.00 0.00 84 1012.7
20260507000412 47 67 1.0 7.0 0.00 0.00 0.00 84 1012.7
20260506235411 47 67 2.0 7.0 0.00 0.00 0.00 84 1012.6
20260506234411 47 67 1.0 8.0 0.00 0.00 0.00 84 1012.5
20260506233411 47 90 4.0 7.0 0.00 0.00 0.00 84 1012.5
20260506232410 47 67 3.0 6.0 0.00 0.00 0.00 85 1012.4
20260506231410 47 90 1.0 4.0 0.00 0.00 0.00 85 1012.2
20260506225414 47 0 0.0 0.0 0.00 0.00 0.00 85 1012.2
20260506224414 47 112 0.0 6.0 0.00 0.00 0.00 84 1012.2
20260506223414 47 90 1.0 6.0 0.00 0.00 0.00 84 1012.2
20260506222413 47 67 3.0 4.0 0.00 0.00 0.00 84 1012.2
20260506221413 47 67 2.0 6.0 0.00 0.00 0.00 84 1012.2
20260506220413 47 67 2.0 7.0 0.00 0.00 0.00 86 1012.2
20260506215415 48 45 0.0 6.0 0.00 0.00 0.00 85 1011.9
20260506214412 48 135 1.0 6.0 0.00 0.00 0.00 84 1011.8
20260506213411 49 67 1.0 4.0 0.00 0.00 0.00 83 1011.8
20260506212411 49 90 3.0 7.0 0.00 0.00 0.00 82 1011.8
20260506211414 49 45 4.0 8.0 0.00 0.00 0.00 83 1011.8
20260506205410 49 90 1.0 9.0 0.00 0.00 0.00 82 1011.7
20260506204410 49 45 1.0 7.0 0.00 0.00 0.00 82 1011.6
20260506202414 49 45 1.0 8.0 0.00 0.00 0.00 83 1011.4
20260506201414 49 22 2.0 7.0 0.00 0.00 0.00 82 1011.3
20260506200414 49 45 3.0 7.0 0.00 0.00 0.00 81 1011.3
20260506194413 49 67 2.0 4.0 0.00 0.00 0.00 79 1011.1
20260506193413 50 90 2.0 7.0 0.00 0.00 0.00 78 1011.1
20260506192413 50 67 2.0 8.0 0.00 0.00 0.00 77 1011.1
20260506191412 51 45 2.0 7.0 0.00 0.00 0.00 75 1010.7
20260506190412 51 67 6.0 8.0 0.00 0.00 0.00 73 1010.7
20260506185411 51 45 1.0 7.0 0.00 0.00 0.00 72 1010.6
20260506184411 51 45 1.0 3.0 0.00 0.00 0.00 73 1010.6
20260506182410 52 67 2.0 11.0 0.00 0.00 0.00 70 1010.4
20260506181410 52 337 1.0 8.0 0.00 0.00 0.00 68 1010.2
20260506180415 52 67 3.0 8.0 0.00 0.00 0.00 65 1010.2
20260506175414 53 22 0.0 9.0 0.00 0.00 0.00 63 1010.1
20260506174414 53 67 1.0 9.0 0.00 0.00 0.00 66 1010.0
20260506172413 53 67 3.0 9.0 0.00 0.00 0.00 65 1009.7
20260506171416 54 360 1.0 9.0 0.00 0.00 0.00 64 1009.6
20260506170413 54 67 3.0 9.0 0.00 0.00 0.00 63 1009.6
20260506165412 54 67 3.0 8.0 0.00 0.00 0.00 64 1009.6
20260506164412 55 67 3.0 9.0 0.00 0.00 0.00 64 1009.6
20260506163412 55 45 3.0 11.0 0.00 0.00 0.00 63 1009.6
20260506162411 55 90 3.0 9.0 0.00 0.00 0.00 62 1009.6
20260506161411 55 22 2.0 10.0 0.00 0.00 0.00 61 1009.6
20260506160410 56 90 4.0 9.0 0.00 0.00 0.00 62 1009.6
20260506155410 56 67 3.0 9.0 0.00 0.00 0.00 60 1009.7
20260506154415 56 67 3.0 11.0 0.00 0.00 0.00 62 1009.7
20260506152414 57 45 3.0 9.0 0.00 0.00 0.00 63 1009.6
20260506151414 57 67 1.0 11.0 0.00 0.00 0.00 61 1009.6
20260506150413 57 67 3.0 8.0 0.00 0.00 0.00 61 1009.6
20260506145416 57 67 3.0 9.0 0.00 0.00 0.00 60 1009.6
20260506144413 57 67 4.0 7.0 0.00 0.00 0.00 59 1009.6
20260506142412 57 45 4.0 11.0 0.00 0.00 0.00 55 1009.7
20260506140411 58 67 4.0 8.0 0.00 0.00 0.00 53 1009.6
20260506135411 57 67 3.0 10.0 0.00 0.00 0.00 53 1009.6
20260506134411 58 67 3.0 12.0 0.00 0.00 0.00 52 1009.6
20260506133410 58 45 4.0 10.0 0.00 0.00 0.00 51 1009.6
20260506132410 58 315 1.0 13.0 0.00 0.00 0.00 47 1009.6
20260506131415 58 45 6.0 16.0 0.00 0.00 0.00 46 1009.6
20260506125414 58 67 6.0 17.0 0.00 0.00 0.00 44 1009.3
20260506124414 59 45 7.0 16.0 0.00 0.00 0.00 43 1009.2
20260506123413 59 67 6.0 10.0 0.00 0.00 0.00 45 1009.2
20260506121413 58 67 7.0 11.0 0.00 0.00 0.00 45 1009.1
20260506120412 58 67 1.0 6.0 0.00 0.00 0.00 46 1009.1
20260506115412 58 360 3.0 16.0 0.00 0.00 0.00 44 1009.1
20260506114412 58 22 3.0 13.0 0.00 0.00 0.00 45 1009.1
20260506113411 58 315 3.0 12.0 0.00 0.00 0.00 44 1009.1
20260506112411 58 67 6.0 13.0 0.00 0.00 0.00 46 1009.1
20260506111411 58 45 1.0 9.0 0.00 0.00 0.00 46 1009.0
20260506110410 57 337 7.0 13.0 0.00 0.00 0.00 47 1009.0
20260506105413 57 45 0.0 17.0 0.00 0.00 0.00 51 1009.1
20260506104415 56 337 4.0 11.0 0.00 0.00 0.00 48 1009.1
20260506103414 57 45 4.0 9.0 0.00 0.00 0.00 49 1009.1
20260506101417 56 337 2.0 13.0 0.00 0.00 0.00 49 1009.1
20260506100413 56 360 1.0 11.0 0.00 0.00 0.00 50 1009.1
20260506095413 56 45 2.0 13.0 0.00 0.00 0.00 49 1009.2
20260506094413 56 67 6.0 13.0 0.00 0.00 0.00 50 1009.2
20260506093413 56 67 2.0 14.0 0.00 0.00 0.00 49 1009.2
20260506092412 55 45 2.0 11.0 0.00 0.00 0.00 50 1009.2
20260506091412 55 67 1.0 12.0 0.00 0.00 0.00 51 1009.2
20260506090412 54 45 2.0 9.0 0.00 0.00 0.00 52 1009.2
20260506085411 55 67 4.0 13.0 0.00 0.00 0.00 54 1009.2
20260506084411 54 67 6.0 9.0 0.00 0.00 0.00 55 1009.1